This demonstration page uses our WeatherBlox Daily Observations layout. Learn more.

Left ArrowRight Arrow

Hourly Observations for July 5, 2016

Temp ( °F °C ) Dew Point ( °F °C ) Humidity (%) Winds ( mph kmh ) Pressure ( in mb ) Visibility ( mi km ) Precip ( " mm )
12:53 am 00:53 Clear 82 27.8 72 22.2 72 72 SSW 6 9 30.01 1016 10 16 0.00 0.00
1:53 am 01:53 Clear 81 27.2 72 22.2 74 74 SW 7 11 30.01 1016 10 16 0.00 0.00
2:53 am 02:53 Clear 80 26.7 72 22.2 76 76 SW 6 9 29.99 1016 10 16 0.00 0.00
3:53 am 03:53 Clear 79 26.1 71 21.7 77 77 SSW 8 13 29.99 1016 10 16 0.00 0.00
4:53 am 04:53 Clear 78 25.6 71 21.7 79 79 SW 7 11 30.01 1016 10 16 0.00 0.00
5:53 am 05:53 Clear 77 25 71 21.7 82 82 SSW 6 9 30.02 1017 10 16 0.00 0.00
6:53 am 06:53 Sunny 77 25 71 21.7 82 82 WSW 3 6 30.04 1017 10 16 0.00 0.00
7:53 am 07:53 Sunny 78 25.6 72 22.2 82 82 SW 8 13 30.04 1017 10 16 0.00 0.00
8:53 am 08:53 Mostly Sunny 80 26.7 72 22.2 76 76 SW 9 15 30.05 1018 10 16 0.00 0.00
9:29 am 09:29 Mostly Cloudy 82 27.8 73 22.8 74 74 SW 7 11 30.06 1018 10 16 0.00 0.00
9:53 am 09:53 Mostly Cloudy 83 28.3 73 22.8 72 72 SW 7 11 30.06 1018 10 16 0.00 0.00
10:27 am 10:27 Mostly Cloudy 84 28.9 73 22.8 70 70 SW 13 20 30.06 1018 10 16 0.00 0.00
10:53 am 10:53 Mostly Cloudy 86 30 72 22.2 63 63 SW 10 17 30.05 1018 10 16 0.00 0.00
11:53 am 11:53 Mostly Cloudy 88 31.1 70 21.1 55 55 WSW 15 24 30.05 1018 10 16 0.00 0.00
12:28 pm 12:28 Mostly Cloudy with Nearby Thunderstorms 81 27 70 21 70 70 NW 10 17 30.06 1018 10 16 0.00 0.00
12:53 pm 12:53 Mostly Cloudy with Thunderstorms 79 26.1 71 21.7 77 77 VRB 5 7 30.06 1018 10 16 0.00 0.03
1:24 pm 13:24 Cloudy 79 26 72 22 79 79 Calm 30.06 1018 10 16 0.00 0.00
1:53 pm 13:53 Mostly Cloudy with Nearby Thunderstorms 76 24.4 72 22.2 88 88 W 18 30 30.09 1019 1 2 0.23 5.84
1:58 pm 13:58 Cloudy with Strong Thunderstorms 75 24 72 22 89 89 WSW 12 19 30.09 1019 1 1 0.00 0.00
2:08 pm 14:08 Cloudy with Thunderstorms 75 24 72 22 89 89 SW 9 15 30.09 1019 2 3 0.00 0.00
2:18 pm 14:18 Cloudy with Thunderstorms 73 23 72 22 94 94 SSW 7 11 30.09 1019 3 5 0.00 0.00
2:53 pm 14:53 Mostly Cloudy with Nearby Thunderstorms 75 23.9 71 21.7 88 88 WSW 6 9 30.08 1019 10 16 0.20 5.08
3:05 pm 15:05 Mostly Cloudy with Light Rain 75 23.9 71 21.7 88 88 VRB 5 7 30.06 1018 8 13 0.02 0.51
3:53 pm 15:53 Mostly Sunny 75 23.9 72 22.2 90 90 S 6 9 30.06 1018 10 16 0.02 0.51
4:53 pm 16:53 Mostly Sunny 76 24.4 73 22.8 91 91 SW 3 6 30.05 1018 10 16 0.00 0.03
5:20 pm 17:20 Mostly Sunny 77 25 73 22.8 88 88 VRB 5 7 30.06 1018 10 16 0.00 0.00
5:53 pm 17:53 Sunny 77 25 73 22.8 88 88 WSW 6 9 30.04 1017 10 16 0.00 0.00
6:53 pm 18:53 Mostly Sunny 78 25.6 73 22.8 85 85 SSW 5 7 30.04 1017 10 16 0.00 0.00
7:34 pm 19:34 Mostly Sunny 79 26 73 23 84 84 VRB 3 6 30.03 1017 10 16 0.00 0.00
7:53 pm 19:53 Sunny 78 25.6 73 22.8 85 85 SSW 3 6 30.04 1017 10 16 0.00 0.00
8:53 pm 20:53 Mostly Clear 77 25 73 22.8 88 88 SW 3 6 30.04 1017 10 16 0.00 0.00
9:53 pm 21:53 Clear 77 25 73 22.8 88 88 SW 3 6 30.04 1017 10 16 0.00 0.00
10:53 pm 22:53 Clear 76 24.4 73 22.8 91 91 SSW 3 6 30.04 1017 10 16 0.00 0.00
11:53 pm 23:53 Clear 76 24.4 73 22.8 91 91 Calm 30.04 1017 9 14 0.00 0.00

Powered by AerisWeather